Weather History for Oklahoma City, OK

Change the Weather History Date:

Monday, March 18, 2013

  Actual Average Record
Temperature  
Mean Temperature 50 °F 53 °F  
Max Temperature 62 °F 64 °F 89 °F (1907)
Min Temperature 38 °F 42 °F 9 °F (1923)
Degree Days  
Heating Degree Days 15 13  
Month to date heating degree days 277 269  
Since 1 July heating degree days 2846 3019  
Cooling Degree Days 0 0  
Month to date cooling degree days 0 0  
Year to date cooling degree days 2 1  
Moisture  
Dew Point 33 °F    
Average Humidity 58    
Maximum Humidity 92    
Minimum Humidity 23    
Precipitation  
Precipitation 0.00 in 0.10 in 1.72 in (2008)
Month to date precipitation 0.31 1.70  
Year to date precipitation 4.17 4.67  
Snow  
Snow 0.00 in 0.00 in 0.70 in (1961)
Month to date snowfall 0.0 0.7  
Since 1 July snowfall 7.7 7.4  
Snow Depth -    
Sea Level Pressure  
Sea Level Pressure 29.89 in    
Wind  
Wind Speed 12 mph (North)    
Max Wind Speed 23 mph    
Max Gust Speed 29 mph    
Visibility 8 miles    
Events      
T = Trace of Precipitation, MM = Missing Value Source: NWS Daily Summary

Daily Weather History Graph

Daily Weather History Graph

Search for Another Location

Airport:

Trip Planner

Search our weather history database for the weather conditions in past years. The results will help you decide how hot, cold, wet, or windy it might be!

Date:

Astronomy

Mar. 18, 2013 Rise Set
Actual Time 7:36 AM CDT 7:40 PM CDT
Civil Twilight 7:11 AM CDT 8:06 PM CDT
Nautical Twilight 6:41 AM CDT 8:35 PM CDT
Astronomical Twilight 6:11 AM CDT 9:05 PM CDT
Moon 11:49 AM CDT (3/18) 1:29 AM CDT (3/18)
Length of Visible Light 12h 54m
Length of Day
12h 04m
Waxing Crescent, 41% of the Moon is Illuminated
Mar 18
Waxing Crescent
Mar 19
First Quarter
Mar 27
Full
Apr 2
Last Quarter
Apr 10
New

Hourly Weather History & Observations

Time (CDT) Temp. Windchill Dew Point Humidity Pressure Visibility Wind Dir Wind Speed Gust Speed Precip Events Conditions
12:52 AM 41.0 °F 37.1 °F 37.0 °F 86% 29.67 in 7.0 mi East 5.8 mph - N/A   Scattered Clouds
1:52 AM 39.0 °F 34.0 °F 36.0 °F 89% 29.66 in 6.0 mi East 6.9 mph - N/A   Scattered Clouds
2:52 AM 41.0 °F 34.7 °F 37.0 °F 86% 29.72 in 5.0 mi NNE 10.4 mph - N/A   Scattered Clouds
3:03 AM 41.0 °F 32.8 °F 37.4 °F 87% 29.73 in 4.0 mi North 16.1 mph - N/A   Scattered Clouds
3:11 AM 41.0 °F 33.5 °F 37.4 °F 87% 29.74 in 4.0 mi North 13.8 mph 24.2 mph N/A   Mostly Cloudy
3:52 AM 39.9 °F 32.5 °F 37.9 °F 93% 29.73 in 4.0 mi NE 12.7 mph - N/A   Mostly Cloudy
4:03 AM 39.2 °F 32.5 °F 37.4 °F 93% 29.73 in 4.0 mi NNE 10.4 mph - N/A   Mostly Cloudy
4:50 AM 41.0 °F 33.9 °F 37.4 °F 87% 29.76 in 5.0 mi North 12.7 mph - N/A   Mostly Cloudy
4:52 AM 41.0 °F 34.7 °F 37.9 °F 89% 29.77 in 5.0 mi North 10.4 mph - N/A   Mostly Cloudy
5:32 AM 41.0 °F 33.1 °F 39.2 °F 93% 29.80 in 4.0 mi North 15.0 mph 23.0 mph N/A   Overcast
5:52 AM 42.1 °F 35.7 °F 39.0 °F 89% 29.81 in 3.0 mi North 11.5 mph - N/A   Overcast
6:52 AM 42.1 °F 35.7 °F 39.0 °F 89% 29.85 in 3.0 mi North 11.5 mph - N/A   Overcast
7:49 AM 41.0 °F 33.9 °F 37.4 °F 87% 29.89 in 3.0 mi North 12.7 mph - N/A   Overcast
7:52 AM 42.1 °F 34.9 °F 37.9 °F 85% 29.90 in 3.0 mi North 13.8 mph - N/A   Overcast
8:52 AM 42.1 °F 34.5 °F 37.0 °F 82% 29.92 in 6.0 mi North 15.0 mph - N/A   Haze
9:34 AM 44.6 °F 37.2 °F 37.4 °F 76% 29.93 in 10.0 mi North 17.3 mph 21.9 mph N/A   Overcast
9:52 AM 45.0 °F 37.6 °F 37.9 °F 76% 29.96 in 10.0 mi NNW 17.3 mph - N/A   Overcast
10:38 AM 48.2 °F - 37.4 °F 66% 29.94 in 10.0 mi North 20.7 mph - N/A   Mostly Cloudy
10:52 AM 48.9 °F - 37.9 °F 66% 29.96 in 10.0 mi North 20.7 mph 26.5 mph N/A   Mostly Cloudy
11:23 AM 48.2 °F - 37.4 °F 66% 29.96 in 9.0 mi North 19.6 mph 25.3 mph N/A   Scattered Clouds
11:52 AM 52.0 °F - 37.0 °F 57% 29.96 in 10.0 mi North 18.4 mph 26.5 mph N/A   Partly Cloudy
12:52 PM 55.9 °F - 35.1 °F 45% 29.98 in 10.0 mi North 13.8 mph - N/A   Clear
1:52 PM 57.9 °F - 33.1 °F 39% 29.98 in 10.0 mi North 15.0 mph 21.9 mph N/A   Partly Cloudy
2:52 PM 60.1 °F - 30.0 °F 32% 29.96 in 10.0 mi North 15.0 mph 24.2 mph N/A   Scattered Clouds
3:52 PM 61.0 °F - 27.0 °F 27% 29.94 in 10.0 mi North 15.0 mph - N/A   Scattered Clouds
4:52 PM 61.0 °F - 25.0 °F 25% 29.94 in 10.0 mi North 13.8 mph 21.9 mph N/A   Partly Cloudy
5:52 PM 61.0 °F - 24.1 °F 24% 29.95 in 10.0 mi North 12.7 mph - N/A   Partly Cloudy
6:52 PM 59.0 °F - 21.9 °F 24% 29.98 in 10.0 mi North 13.8 mph - N/A   Partly Cloudy
7:52 PM 54.0 °F - 23.0 °F 30% 30.00 in 10.0 mi North 8.1 mph - N/A   Partly Cloudy
8:52 PM 52.0 °F - 23.0 °F 32% 30.01 in 10.0 mi North 6.9 mph - N/A   Partly Cloudy
9:52 PM 51.1 °F - 23.0 °F 33% 30.01 in 10.0 mi NE 5.8 mph - N/A   Partly Cloudy
10:52 PM 46.9 °F - 24.1 °F 41% 30.04 in 10.0 mi NE 6.9 mph - N/A   Partly Cloudy
11:52 PM 44.6 °F 40.2 °F 24.8 °F 46% 30.03 in 10.0 mi ENE 8.1 mph - N/A   Clear